Track COSMOS 2425 (GLONASS) now! COSMOS 2425 (GLONASS) is classified as:
1 29670U 06062A 26166.16921559 .00000092 00000-0 00000-0 0 9998 2 29670 64.6930 194.3512 0022912 351.5042 13.0502 2.13117702151546